Regional Weather Roundup
Issued by NWS

Home | Current Version | Previous Version | Graphics & Text | Print | Product List | Glossary On
Versions: 1 2 3 4 5 6 7 8 9 10 11 12 13 14 15 16 17 18 19 20 21 22 23 24 25 26 27 28 29 30 31 32 33 34 35 36 37 38 39 40 41 42 43 44 45 46 47 48 49 50
600
ASUS44 KJAN 311303
RWRMS

MISSISSIPPI HOURLY WEATHER ROUNDUP
NATIONAL WEATHER SERVICE JACKSON MS
800 AM CDT TUE MAR 31 2015

NOTE: "FAIR: INDICATES FEW OR NO CLOUDS BELOW 12,000 FEET WITH NO
SIGNIFICANT WEATHER AND/OR OBSTRUCTIONS TO VISIBILITY.

MSZ001>002-007>008-010>013-018>021-025>028-034>036-311400-
NORTHWEST MISSISSIPPI

CITY           SKY/WX    TMP DP  RH WIND       PRES   REMARKS
CLARKSDALE       N/A     59  57  94 SE5       30.03S
CLEVELAND      FAIR      62  61  97 S7        30.03S
GREENWOOD      MOSUNNY   63  58  83 SW8       30.05R
GREENVILLE     NOT AVBL
OLIVE BRANCH   PTSUNNY   55  54  94 S7        30.03R
OXFORD         FAIR      54  48  82 CALM      30.06R
TUNICA         PTSUNNY   57  54  88 SE3       30.03S
$$

MSZ003>006-009-014>017-022>024-029>033-037>039-311400-
NORTHEAST MISSISSIPPI

CITY           SKY/WX    TMP DP  RH WIND       PRES   REMARKS
COLUMBUS AFB   MOSUNNY   55  52  88 SE2       30.06R
CORINTH        PTSUNNY   52  46  82 CALM      30.03R
GOLDN TRIANGLE PTSUNNY   57  54  88 CALM      30.05R
STARKVILLE     PTSUNNY   57  55  94 CALM      30.07R
TUPELO         PTSUNNY   55  50  83 SW3       30.04S
$$

MSZ040-058-311400-
CENTRAL MISSISSIPPI

CITY           SKY/WX    TMP DP  RH WIND       PRES   REMARKS
JACKSON INTL   PTSUNNY   62  59  90 S6        30.10R
JACKSON HAWKNS MOSUNNY   63  59  87 SW7       30.10R
MERIDIAN KEY   MOSUNNY   58  57  97 S6        30.10R
MERIDIAN NAS   MOSUNNY   60  57  89 SW3       30.08R
RAYMOND        FAIR      61  55  82 MISG      30.09R
VICKSBURG      PTSUNNY   63  60  90 SW6       30.09R
$$

MSZ059>079-311400-
SOUTH MISSISSIPPI

CITY           SKY/WX    TMP DP  RH WIND       PRES   REMARKS
BROOKHAVEN     CLOUDY    61  61 100 SW7       30.13R
HATTIESBURG    SUNNY     64  60  87 W5        30.12R
MCCOMB         CLOUDY    61  61 100 SW5       30.11S FOG
NATCHEZ        CLOUDY    63  59  88 SW6       30.12R
PINE BELT      SUNNY     61  55  82 SW5       30.13R
$$

MSZ080>082-311400-
COASTAL MISSISSIPPI

CITY           SKY/WX    TMP DP  RH WIND       PRES   REMARKS
BILOXI         SUNNY     69  65  87 W5        30.12R
PASCAGOULA     MOSUNNY   64  64 100 CALM      30.12R
GULFPORT       SUNNY     65  63  93 CALM      30.12R
$$



USA.gov is the U.S. government's official web portal to all federal, state and local government web resources and services.